Dauntless Aviation
Greetings, Guest! To participate, [sign up for a free account] or [log in]
Airports Europe Portugal
LPPT
LIS

Lisboa

Lisbon, PORTUGAL

Airport Info
Edit

Location

Latitude / Longitude: 38°46'52"N / 9°8'9"W
  38°46.878'N / 9°8.154'W
  38.7813 / -9.1359

Nearby radio navigation aids

CP CAPARICA NDB. 31.5° 9.1nm from CP to field.
LAR ARRUDA NDB. 204.2° 13.7nm from LAR to field.
LIS LISBOA VOR/DME. 173.9° 6.5nm from LIS to field.

Runway Information

Runway 03 /21

Dimensions: 12484 x 148 ft.
Surface: ASP
 
Runway 03
Runway 21
Latitude: 38.766431 38.792319
Longitude: -9.1439 -9.130047
Elevation: 329 ft. 329 ft.
Runway true heading: 21.5 201.5
 

Runway 17 /35

Dimensions: 7874 x 148 ft.
Surface: ASP
 
Runway 17
Runway 35
Latitude: 38.786233 38.766331
Longitude: -9.137269 -9.131919
Elevation: 373 ft. 373 ft.
Runway true heading: 166.5 346.5
 

Instrument Procedures

  Parking Docking Aprons 20/ 22/ 30/ 40/ 41 and 42
  Parking Docking Aprons 14/ 70 and 80
  Parking Docking Chart Aprons 10/ 11/ 12/ 50 and 60
  Aerodrome Chart-2

Departure Procedures

  Ground Movement Chart Arrival/Departure Rwy 21
  Aerodrome Chart-1

Departure Procedures

  Ground Movement Chart Arrival/Departure Rwy 03

STARs (Standard Terminal Arrivals)

  STAR Rwy 03/35
  STAR RNAV Rwy 03/35
  STAR RNAV Rwy 21
  STAR RNAV Rwy 21
  STAR RNAV Rwy 03/35
  STAR RNAV Rwy 21
  RNAV STAR CDO Rwy 03
  RNAV STAR CDO Rwy 03
  STAR Rwy 21

IAPs (Instrument Approach Procedures)

  Visual Approach Chart
  ILS Rwy 03 CAT A-B-C-D
  Aerodrome Obstacle Chart Rwy 17/35
  Aerodrome Obstacle Chart Rwy 03
  Aerodrome Obstacle Chart Rwy 21
  ILS 1 Rwy 21 CAT A-B-C-D
  ILS-2 Rwy 21 CAT A-B-C-D
  DVOR DME Rwy 35 CAT A-B-C-D
  NDB Rwy 03 CAT A B C D
  L Rwy 21 CAT A-B-C-D
  Precision Approach Terrain Chart Rwy 21

Departure Procedures

  SID RNAV Rwy 03/35
  SID RNAV Rwy 21
  SID Rwy 03/35
  SID Rwy 21
Satellite photo at:
Airport distance calculator
From:
Weather Reports

METAR

LPPT

LPPT 231600Z 27007KT 230V320 9999 FEW028 FEW030CB 23/16 Q1013
LPMT
6.3nm SE
LPMT 231600Z 26008KT 220V290 9999 SCT018 FEW020TCU 24/18 Q1012
LPAR
7.8nm N
LPAR 231600Z 19006KT 8000 -SHRA SCT018 FEW020CB 23/17 Q1012
LPST
8.7nm W
LPST 231600Z 32010KT 9999 FEW025 FEW028CB 22/16 Q1013

TAF

LPPT
TAF AMD LPPT 231200Z 2312/2418 21010KT 9999 SCT015 TEMPO 2312/2318 3000 SHRA FEW006 BKN015 FEW025CB PROB40 TEMPO 2312/2318 VRB15G25KT 0500 +TSRAGS BKN012 SCT018CB BECMG 2313/2316 31007KT SCT025 PROB30 TEMPO 2405/2409 0300 FG VV001
LPMT
6.3nm SE
TAF AMD LPMT 231259Z 2313/2412 34008KT 9999 SCT020 TEMPO 2313/2318 6000 SHRA SCT014 FEW022CB PROB30 TEMPO 2313/2317 4000 TSRA BKN014 FEW018CB BECMG 2321/2323 VRB02KT BKN015 PROB40 2401/2409 3000 BR BKN005
LPAR
7.8nm N
TAF LPAR 231400Z 2315/2324 VRB02KT 9999 SCT016 PROB30 TEMPO 2315/2317 6000 SHRA SCT014 FEW022CB BECMG 2315/2317 34008KT
LPST
8.7nm W
TAF LPST 231400Z 2315/2324 33008KT 9999 SCT020 PROB30 TEMPO 2315/2317 6000 SHRA SCT014 FEW022CB
Safelog

 

Dauntless Aviation

© 2007-2014 Dauntless Aviation, all rights reserved
Information provided via PilotNav comes from a variety of official and unofficial data sources. As errors are possible, do not use PilotNav for primary flight planning purposes. Verify any information that you receive via PilotNav with current and canonical charts and other official documents. The material in this database is subject to database copyrights held by Dauntless Aviation and may not be copied without the express permission of Dauntless Aviation - licenses for use of part of all of this data are available for purchase; enquire via the Dauntless Aviation helpdesk. A number of mechanisms and markers exist in the database to protect against and identify infringement / copyright. Automated queries against this website are stictly prohibited, and all activity is logged and analyzed.